Hourly Weather Dziadkowko

Today, 18 May, Tuesday

Time Temperature Precipitation Wind Pressure Humidity
00:00 +10°C° 0 mm 2 mps 743 mmHg 90%
01:00 +10°C° 0 mm 2 mps 743 mmHg 91%
02:00 +10°C° 0.1 mm 2 mps 743 mmHg 92%
03:00 +10°C° 0.1 mm 2 mps 743 mmHg 92%
04:00 +10°C° 0.1 mm 2 mps 744 mmHg 93%
05:00 +10°C° 0.1 mm 2 mps 744 mmHg 91%
06:00 +12°C° 0.1 mm 2 mps 744 mmHg 89%
07:00 +12°C° 0.1 mm 3 mps 745 mmHg 86%
08:00 +12°C° 0.3 mm 3 mps 745 mmHg 83%
09:00 +13°C° 0.3 mm 3 mps 745 mmHg 81%
10:00 +14°C° 0.3 mm 4 mps 745 mmHg 78%
11:00 +14°C° 0.6 mm 4 mps 745 mmHg 75%
12:00 +15°C° 0.6 mm 4 mps 745 mmHg 73%
13:00 +15°C° 0.6 mm 5 mps 745 mmHg 71%
14:00 +15°C° 0.7 mm 5 mps 746 mmHg 74%
15:00 +15°C° 0.7 mm 5 mps 746 mmHg 78%
16:00 +14°C° 0.7 mm 5 mps 746 mmHg 81%
17:00 +13°C° 0.7 mm 5 mps 746 mmHg 83%
18:00 +13°C° 0.7 mm 4 mps 746 mmHg 86%
19:00 +12°C° 0.7 mm 4 mps 746 mmHg 88%
20:00 +11°C° 0.2 mm 4 mps 747 mmHg 90%
21:00 +10°C° 0.2 mm 3 mps 747 mmHg 93%
22:00 +10°C° 0.2 mm 3 mps 747 mmHg 95%
23:00 +9°C° 0 mm 3 mps 747 mmHg 95%

Tomorrow, 19 May, Wednesday

Time Temperature Precipitation Wind Pressure Humidity
00:00 +8°C° 0 mm 3 mps 747 mmHg 96%
01:00 +8°C° 0 mm 3 mps 747 mmHg 96%
02:00 +7°C° 0.1 mm 3 mps 748 mmHg 96%
03:00 +7°C° 0.1 mm 3 mps 748 mmHg 96%
04:00 +5°C° 0.1 mm 3 mps 748 mmHg 95%
05:00 +8°C° 0 mm 3 mps 748 mmHg 91%
06:00 +9°C° 0 mm 3 mps 748 mmHg 87%
07:00 +10°C° 0 mm 3 mps 749 mmHg 83%
08:00 +11°C° 0.1 mm 4 mps 749 mmHg 77%
09:00 +13°C° 0.1 mm 4 mps 749 mmHg 72%
10:00 +14°C° 0.1 mm 4 mps 749 mmHg 66%
11:00 +14°C° 0.2 mm 4 mps 749 mmHg 65%
12:00 +15°C° 0.2 mm 4 mps 749 mmHg 64%
13:00 +15°C° 0.2 mm 4 mps 749 mmHg 62%
14:00 +15°C° 0.2 mm 4 mps 749 mmHg 64%
15:00 +15°C° 0.2 mm 4 mps 749 mmHg 66%
16:00 +14°C° 0.2 mm 4 mps 749 mmHg 68%
17:00 +13°C° 0.2 mm 3 mps 749 mmHg 72%
18:00 +12°C° 0.2 mm 3 mps 749 mmHg 76%
19:00 +12°C° 0.2 mm 2 mps 750 mmHg 81%
20:00 +10°C° 0 mm 3 mps 750 mmHg 82%
21:00 +9°C° 0 mm 3 mps 750 mmHg 83%
22:00 +8°C° 0 mm 3 mps 750 mmHg 84%
23:00 +7°C° 0 mm 3 mps 751 mmHg 85%

Day after tomorrow, 20 May, Thursday

Time Temperature Precipitation Wind Pressure Humidity
00:00 +7°C° 0 mm 3 mps 751 mmHg 85%
01:00 +6°C° 0 mm 2 mps 751 mmHg 85%
02:00 +6°C° 0 mm 2 mps 751 mmHg 85%
03:00 +5°C° 0 mm 2 mps 751 mmHg 84%
04:00 +5°C° 0 mm 2 mps 751 mmHg 84%
05:00 +6°C° 0 mm 2 mps 752 mmHg 81%
06:00 +8°C° 0 mm 3 mps 752 mmHg 78%
07:00 +10°C° 0 mm 3 mps 752 mmHg 75%
08:00 +11°C° 0 mm 3 mps 752 mmHg 71%
09:00 +13°C° 0 mm 3 mps 753 mmHg 66%
10:00 +14°C° 0 mm 4 mps 753 mmHg 61%
11:00 +15°C° 0.1 mm 4 mps 753 mmHg 60%
12:00 +15°C° 0.1 mm 4 mps 752 mmHg 58%
13:00 +17°C° 0.1 mm 4 mps 752 mmHg 57%
14:00 +15°C° 0.3 mm 5 mps 753 mmHg 61%
15:00 +15°C° 0.3 mm 5 mps 753 mmHg 66%
16:00 +14°C° 0.3 mm 5 mps 753 mmHg 70%
17:00 +13°C° 0.2 mm 5 mps 753 mmHg 74%
18:00 +12°C° 0.2 mm 4 mps 753 mmHg 78%
19:00 +11°C° 0.2 mm 3 mps 754 mmHg 82%
20:00 +10°C° 0 mm 3 mps 754 mmHg 84%
21:00 +8°C° 0 mm 3 mps 754 mmHg 86%
22:00 +7°C° 0 mm 2 mps 754 mmHg 88%
23:00 +7°C° 0 mm 2 mps 754 mmHg 89%

21 May, Friday

Time Temperature Precipitation Wind Pressure Humidity
00:00 +6°C° 0 mm 2 mps 754 mmHg 89%
01:00 +6°C° 0 mm 2 mps 754 mmHg 90%
02:00 +6°C° 0 mm 2 mps 754 mmHg 90%
03:00 +6°C° 0 mm 2 mps 754 mmHg 91%
04:00 +5°C° 0 mm 2 mps 754 mmHg 92%
05:00 +7°C° 0 mm 3 mps 754 mmHg 88%
06:00 +9°C° 0 mm 3 mps 754 mmHg 84%
07:00 +10°C° 0 mm 3 mps 754 mmHg 80%
08:00 +12°C° 0 mm 4 mps 753 mmHg 75%
09:00 +13°C° 0 mm 4 mps 753 mmHg 70%
10:00 +14°C° 0 mm 4 mps 753 mmHg 65%
11:00 +15°C° 0 mm 5 mps 753 mmHg 61%
12:00 +16°C° 0 mm 5 mps 752 mmHg 57%
13:00 +17°C° 0 mm 5 mps 752 mmHg 54%
14:00 +17°C° 0 mm 5 mps 751 mmHg 55%
15:00 +17°C° 0 mm 5 mps 751 mmHg 57%
16:00 +17°C° 0 mm 5 mps 750 mmHg 59%
17:00 +16°C° 0 mm 5 mps 750 mmHg 64%
18:00 +15°C° 0 mm 5 mps 749 mmHg 69%
19:00 +13°C° 0 mm 4 mps 749 mmHg 73%
20:00 +13°C° 0 mm 4 mps 749 mmHg 73%
21:00 +13°C° 0 mm 5 mps 748 mmHg 72%
22:00 +13°C° 0 mm 5 mps 748 mmHg 71%
23:00 +13°C° 0 mm 5 mps 748 mmHg 71%

22 May, Saturday

Time Temperature Precipitation Wind Pressure Humidity
00:00 +12°C° 0 mm 5 mps 747 mmHg 71%
01:00 +12°C° 0 mm 5 mps 747 mmHg 71%
02:00 +10°C° 0 mm 5 mps 746 mmHg 72%
03:00 +10°C° 0 mm 6 mps 746 mmHg 73%
04:00 +10°C° 0 mm 6 mps 746 mmHg 73%
05:00 +10°C° 0 mm 6 mps 745 mmHg 78%
06:00 +11°C° 0 mm 6 mps 745 mmHg 82%
07:00 +11°C° 0 mm 6 mps 745 mmHg 86%
08:00 +12°C° 0 mm 7 mps 745 mmHg 83%
09:00 +14°C° 0 mm 7 mps 746 mmHg 79%
10:00 +15°C° 0 mm 8 mps 746 mmHg 75%
11:00 +16°C° 0.1 mm 7 mps 746 mmHg 72%
12:00 +16°C° 0.1 mm 7 mps 746 mmHg 68%
13:00 +16°C° 0.1 mm 7 mps 746 mmHg 64%
14:00 +15°C° 0.1 mm 6 mps 746 mmHg 69%
15:00 +14°C° 0.1 mm 5 mps 747 mmHg 74%
16:00 +13°C° 0.1 mm 4 mps 747 mmHg 78%
17:00 +13°C° 0 mm 4 mps 747 mmHg 76%
18:00 +13°C° 0 mm 4 mps 747 mmHg 73%
19:00 +12°C° 0 mm 3 mps 747 mmHg 71%
20:00 +11°C° 0 mm 3 mps 747 mmHg 73%
21:00 +10°C° 0 mm 3 mps 747 mmHg 75%
22:00 +9°C° 0 mm 3 mps 747 mmHg 78%
23:00 +8°C° 0 mm 4 mps 747 mmHg 81%

23 May, Sunday

Time Temperature Precipitation Wind Pressure Humidity
00:00 +7°C° 0 mm 4 mps 747 mmHg 84%
01:00 +7°C° 0 mm 4 mps 747 mmHg 88%
02:00 +6°C° 0 mm 4 mps 747 mmHg 89%
03:00 +6°C° 0 mm 4 mps 748 mmHg 91%
04:00 +6°C° 0 mm 4 mps 748 mmHg 93%
05:00 +7°C° 0 mm 4 mps 748 mmHg 87%
06:00 +9°C° 0 mm 5 mps 748 mmHg 81%
07:00 +10°C° 0 mm 5 mps 748 mmHg 75%
08:00 +11°C° 0 mm 6 mps 748 mmHg 72%
09:00 +13°C° 0 mm 6 mps 748 mmHg 69%
10:00 +14°C° 0 mm 7 mps 748 mmHg 66%
11:00 +14°C° 0.5 mm 7 mps 748 mmHg 67%
12:00 +14°C° 0.5 mm 7 mps 748 mmHg 69%
13:00 +14°C° 0.5 mm 7 mps 748 mmHg 71%
14:00 +14°C° 0.3 mm 7 mps 748 mmHg 71%
15:00 +14°C° 0.3 mm 6 mps 749 mmHg 71%
16:00 +14°C° 0.3 mm 6 mps 749 mmHg 71%
17:00 +13°C° 0 mm 5 mps 749 mmHg 75%
18:00 +12°C° 0 mm 4 mps 749 mmHg 78%
19:00 +11°C° 0 mm 3 mps 749 mmHg 81%
20:00 +10°C° 0 mm 3 mps 749 mmHg 84%
21:00 +9°C° 0 mm 3 mps 750 mmHg 87%
22:00 +8°C° 0 mm 3 mps 750 mmHg 90%
23:00 +8°C° 0 mm 3 mps 750 mmHg 89%
Show more